COSMOS 2251 DEB, 34301

Orbit data source: Space-Track

COSMOS 2251 DEB, 34301 is space debris in LEO originally from a launch on Wed, 16 Jun 1993 UTC launched from the Plesetsk Missile And Space Complex (PKMTR). The debris from Iridium 33, an American commercial communications satellite, has been tracked extensively since its accidental collision with the defunct Russian satellite Cosmos 2251 in 2009. This event, occurring at high speed in low Earth orbit (LEO), generated thousands of pieces of space debris, significantly increasing the risk of further collisions. The Iridium 33 debris cloud has impacted space traffic management and orbital debris mitigation strategies, making it a subject of ongoing study in space situational awareness.

Loading next visibility...
Identifier
34301, 1993-036MX
Orbit
LEO
Country
Flag of CISCIS
Related business
Manufacturer
Unknown
Mission
Spacecraft
Bus & Motor
Unknown
Mass
Unknown
Launch date (UTC)
1993-06-16 (33 years ago)
Launch vehicle
Unknown
Launch site
Plesetsk Missile And Space Complex (PKMTR)
Object type
Payload
Rocket body
Debris
Shape & HBR
Unknown shape, 0.1 m
Radar Cross Section
Small (<0.1 m²)

Expand to show TLE details & history
Last TLE update: 13 hours ago

TLE from 13 hours ago
0 COSMOS 2251 DEB
1 34301U 93036MX  26124.09814068  .00033474  00000-0  31965-2 0  9990
2 34301  74.0022 241.7240 0007598 288.9608 247.1288 14.93114242905195
Epoch: 2026-05-04T02:21Z
TLE epoch observation values (Epoch: 2026-05-04T02:21:19.354Z)
Latitude
3.74591°
Longitude
163.33144°
Altitude
592.562 km
Speed
7.563 km/s
True Right ascension
04h 02m 37s
True Declination
3° 43' 23"
Sunlit
Object was in daylight at epoch
Visualization orbit readout
Latitude
Unknown
Longitude
Unknown
Altitude
Unknown
Speed
Unknown
Apparent Right ascension
Unknown
Apparent Declination
Unknown
Sunlit
N/A
Visualization observer readout
Local Sidereal Time
23:28:34
Azimuth
Unknown
Elevation
Unknown
Doppler factor
Unknown
Orbital elements
Apogee altitude
591.088 km
Perigee altitude
580.505 km
Semi-major axis
6,963.933 km
Eccentricity
0.00076
Inclination
74.0022°
RAAN
241.724°
Arg. of periapsis
288.9608°
True anomaly
247.04861°
Mean anomaly
247.1288°
Eccentric anomaly
247.0887°
Mean motion
3.73475 °/min
Orbital period
96.39 mins
BSTAR
0.0031965
Loading maneuver chart data...
Computing Atmospheric mass density...

Documentation

Showing up to 5 results
|